When you browse on this site, cookies collect data to enhance your experience and personalize the content and advertising you see.
Visit our Privacy Policy to learn more. By continuing to use the site, you agree to this use of cookies and data.
  • en Suisse
  • Liste des pays
  • À 7 jours
  • Température de l'eau
  • Carte satellitaire
  • Carte météo
  • Widgets météo
  • user-avatar
    Se connecter

    Météo par heure à Platonove

    Ce jour, 22 Avril, Lundi

    Heure Température Précipitation Vent Pression Humidité
    00:00 +7°C° 0 mm 2 m/s 753 mmHg 53%
    01:00 +8°C° 0 mm 1 m/s 753 mmHg 53%
    02:00 +7°C° 0 mm 1 m/s 753 mmHg 52%
    03:00 +7°C° 0 mm 1 m/s 753 mmHg 53%
    04:00 +7°C° 0 mm 1 m/s 753 mmHg 54%
    05:00 +6°C° 0 mm 1 m/s 753 mmHg 55%
    06:00 +7°C° 0 mm 2 m/s 754 mmHg 52%
    07:00 +9°C° 0 mm 2 m/s 754 mmHg 49%
    08:00 +10°C° 0 mm 2 m/s 754 mmHg 47%
    09:00 +12°C° 0 mm 3 m/s 754 mmHg 43%
    10:00 +13°C° 0 mm 4 m/s 755 mmHg 39%
    11:00 +14°C° 0 mm 5 m/s 755 mmHg 35%
    12:00 +14°C° 0 mm 5 m/s 755 mmHg 36%
    13:00 +14°C° 0 mm 4 m/s 755 mmHg 37%
    14:00 +14°C° 0 mm 4 m/s 755 mmHg 37%
    15:00 +14°C° 0 mm 4 m/s 755 mmHg 39%
    16:00 +14°C° 0 mm 4 m/s 755 mmHg 40%
    17:00 +14°C° 0 mm 3 m/s 755 mmHg 42%
    18:00 +13°C° 0 mm 3 m/s 755 mmHg 46%
    19:00 +12°C° 0 mm 2 m/s 755 mmHg 50%
    20:00 +10°C° 0 mm 2 m/s 755 mmHg 54%
    21:00 +11°C° 0 mm 1 m/s 755 mmHg 55%
    22:00 +10°C° 0 mm 1 m/s 756 mmHg 57%
    23:00 +9°C° 0 mm 1 m/s 756 mmHg 58%

    Demain, 23 Avril, Mardi

    Heure Température Précipitation Vent Pression Humidité
    00:00 +9°C° 0 mm 1 m/s 756 mmHg 58%
    01:00 +7°C° 0 mm 0 m/s 756 mmHg 59%
    02:00 +7°C° 0 mm 0 m/s 756 mmHg 59%
    03:00 +8°C° 0 mm 1 m/s 756 mmHg 60%
    04:00 +7°C° 0 mm 1 m/s 756 mmHg 62%
    05:00 +6°C° 0 mm 2 m/s 756 mmHg 63%
    06:00 +8°C° 0 mm 2 m/s 757 mmHg 60%
    07:00 +10°C° 0 mm 3 m/s 757 mmHg 57%
    08:00 +11°C° 0 mm 4 m/s 757 mmHg 54%
    09:00 +13°C° 0 mm 5 m/s 757 mmHg 49%
    10:00 +14°C° 0 mm 6 m/s 757 mmHg 43%
    11:00 +15°C° 0 mm 6 m/s 758 mmHg 38%
    12:00 +16°C° 0 mm 6 m/s 757 mmHg 38%
    13:00 +16°C° 0 mm 7 m/s 757 mmHg 38%
    14:00 +16°C° 0 mm 7 m/s 757 mmHg 38%
    15:00 +16°C° 0 mm 6 m/s 757 mmHg 39%
    16:00 +15°C° 0 mm 6 m/s 757 mmHg 41%
    17:00 +15°C° 0 mm 6 m/s 756 mmHg 42%
    18:00 +13°C° 0 mm 5 m/s 756 mmHg 47%
    19:00 +12°C° 0 mm 4 m/s 757 mmHg 52%
    20:00 +10°C° 0 mm 3 m/s 757 mmHg 57%
    21:00 +9°C° 0 mm 3 m/s 757 mmHg 60%
    22:00 +9°C° 0 mm 3 m/s 757 mmHg 63%
    23:00 +8°C° 0 mm 3 m/s 757 mmHg 65%

    Après-demain, 24 Avril, Mercredi

    Heure Température Précipitation Vent Pression Humidité
    00:00 +8°C° 0 mm 3 m/s 757 mmHg 65%
    01:00 +7°C° 0 mm 3 m/s 757 mmHg 64%
    02:00 +7°C° 0 mm 3 m/s 757 mmHg 63%
    03:00 +7°C° 0 mm 3 m/s 757 mmHg 61%
    04:00 +7°C° 0 mm 3 m/s 757 mmHg 59%
    05:00 +7°C° 0 mm 3 m/s 757 mmHg 57%
    06:00 +7°C° 0 mm 4 m/s 758 mmHg 56%
    07:00 +10°C° 0 mm 4 m/s 758 mmHg 55%
    08:00 +10°C° 0 mm 5 m/s 758 mmHg 54%
    09:00 +13°C° 0 mm 5 m/s 758 mmHg 51%
    10:00 +14°C° 0 mm 6 m/s 758 mmHg 47%
    11:00 +16°C° 0 mm 6 m/s 758 mmHg 43%
    12:00 +16°C° 0 mm 6 m/s 758 mmHg 42%
    13:00 +17°C° 0 mm 6 m/s 758 mmHg 41%
    14:00 +17°C° 0 mm 6 m/s 758 mmHg 40%
    15:00 +17°C° 0 mm 6 m/s 758 mmHg 42%
    16:00 +17°C° 0 mm 6 m/s 757 mmHg 43%
    17:00 +16°C° 0 mm 6 m/s 757 mmHg 44%
    18:00 +15°C° 0 mm 5 m/s 757 mmHg 50%
    19:00 +13°C° 0 mm 4 m/s 757 mmHg 56%
    20:00 +11°C° 0 mm 3 m/s 757 mmHg 61%
    21:00 +10°C° 0 mm 3 m/s 758 mmHg 64%
    22:00 +10°C° 0 mm 3 m/s 758 mmHg 67%
    23:00 +9°C° 0 mm 3 m/s 758 mmHg 70%

    25 Avril, Jeudi

    Heure Température Précipitation Vent Pression Humidité
    00:00 +9°C° 0 mm 2 m/s 758 mmHg 72%
    01:00 +8°C° 0 mm 2 m/s 758 mmHg 73%
    02:00 +8°C° 0 mm 2 m/s 758 mmHg 74%
    03:00 +8°C° 0 mm 2 m/s 758 mmHg 75%
    04:00 +7°C° 0 mm 2 m/s 758 mmHg 75%
    05:00 +7°C° 0 mm 2 m/s 758 mmHg 75%
    06:00 +9°C° 0 mm 3 m/s 758 mmHg 70%
    07:00 +11°C° 0 mm 3 m/s 758 mmHg 65%
    08:00 +12°C° 0 mm 4 m/s 758 mmHg 60%
    09:00 +14°C° 0 mm 4 m/s 758 mmHg 54%
    10:00 +16°C° 0 mm 5 m/s 758 mmHg 48%
    11:00 +17°C° 0 mm 6 m/s 758 mmHg 43%
    12:00 +19°C° 0 mm 6 m/s 758 mmHg 41%
    13:00 +19°C° 0 mm 6 m/s 758 mmHg 39%
    14:00 +20°C° 0 mm 6 m/s 757 mmHg 37%
    15:00 +20°C° 0 mm 6 m/s 757 mmHg 38%
    16:00 +19°C° 0 mm 6 m/s 756 mmHg 39%
    17:00 +19°C° 0 mm 6 m/s 756 mmHg 40%
    18:00 +16°C° 0 mm 5 m/s 756 mmHg 45%
    19:00 +14°C° 0 mm 4 m/s 756 mmHg 50%
    20:00 +12°C° 0 mm 3 m/s 756 mmHg 56%
    21:00 +11°C° 0 mm 3 m/s 756 mmHg 58%
    22:00 +10°C° 0 mm 3 m/s 756 mmHg 61%
    23:00 +10°C° 0 mm 3 m/s 756 mmHg 64%

    26 Avril, Vendredi

    Heure Température Précipitation Vent Pression Humidité
    00:00 +9°C° 0 mm 2 m/s 756 mmHg 65%
    01:00 +9°C° 0 mm 2 m/s 755 mmHg 65%
    02:00 +8°C° 0 mm 2 m/s 755 mmHg 65%
    03:00 +8°C° 0 mm 2 m/s 755 mmHg 66%
    04:00 +8°C° 0 mm 2 m/s 755 mmHg 66%
    05:00 +7°C° 0 mm 2 m/s 755 mmHg 66%
    06:00 +9°C° 0 mm 2 m/s 755 mmHg 61%
    07:00 +11°C° 0 mm 3 m/s 755 mmHg 56%
    08:00 +13°C° 0 mm 3 m/s 755 mmHg 52%
    09:00 +15°C° 0 mm 4 m/s 755 mmHg 48%
    10:00 +17°C° 0 mm 5 m/s 754 mmHg 45%
    11:00 +20°C° 0 mm 5 m/s 754 mmHg 42%
    12:00 +20°C° 0 mm 5 m/s 754 mmHg 41%
    13:00 +21°C° 0 mm 5 m/s 753 mmHg 40%
    14:00 +22°C° 0 mm 5 m/s 753 mmHg 39%
    15:00 +21°C° 0 mm 5 m/s 752 mmHg 41%
    16:00 +21°C° 0 mm 5 m/s 752 mmHg 42%
    17:00 +21°C° 0 mm 5 m/s 751 mmHg 44%
    18:00 +19°C° 0 mm 5 m/s 751 mmHg 50%
    19:00 +17°C° 0 mm 4 m/s 751 mmHg 56%
    20:00 +14°C° 0 mm 4 m/s 751 mmHg 62%
    21:00 +13°C° 0 mm 4 m/s 751 mmHg 65%
    22:00 +12°C° 0 mm 3 m/s 751 mmHg 67%
    23:00 +12°C° 0 mm 3 m/s 751 mmHg 70%

    27 Avril, Samedi

    Heure Température Précipitation Vent Pression Humidité
    00:00 +11°C° 0 mm 3 m/s 751 mmHg 72%
    01:00 +12°C° 0 mm 2 m/s 750 mmHg 74%
    02:00 +10°C° 0 mm 2 m/s 750 mmHg 76%
    03:00 +10°C° 0 mm 2 m/s 750 mmHg 77%
    04:00 +10°C° 0 mm 2 m/s 750 mmHg 77%
    05:00 +11°C° 0 mm 1 m/s 750 mmHg 78%
    06:00 +12°C° 0 mm 2 m/s 751 mmHg 72%
    07:00 +13°C° 0 mm 3 m/s 751 mmHg 66%
    08:00 +16°C° 0 mm 3 m/s 751 mmHg 59%
    09:00 +18°C° 0 mm 4 m/s 751 mmHg 55%
    10:00 +20°C° 0 mm 4 m/s 751 mmHg 51%
    11:00 +21°C° 0 mm 5 m/s 751 mmHg 46%
    12:00 +22°C° 0 mm 5 m/s 751 mmHg 45%
    13:00 +22°C° 0 mm 5 m/s 750 mmHg 43%
    14:00 +23°C° 0 mm 5 m/s 750 mmHg 42%
    15:00 +22°C° 0 mm 5 m/s 750 mmHg 43%
    16:00 +22°C° 0 mm 5 m/s 750 mmHg 44%
    17:00 +22°C° 0 mm 5 m/s 750 mmHg 45%
    18:00 +20°C° 0 mm 4 m/s 750 mmHg 50%
    19:00 +18°C° 0 mm 3 m/s 750 mmHg 55%
    20:00 +16°C° 0 mm 3 m/s 750 mmHg 60%
    21:00 +15°C° 0 mm 2 m/s 751 mmHg 62%
    22:00 +15°C° 0 mm 2 m/s 751 mmHg 63%
    23:00 +14°C° 0 mm 1 m/s 751 mmHg 65%
    Voir plus